DMSP 5D-2 F13 DEB, 40577

Orbit data source: Space-Track

DMSP 5D-2 F13 DEB, 40577 is space debris in SSO originally from a launch on Fri, 24 Mar 1995 UTC launched from the Air Force Western Test Range (AFWTR). Debris objects in space refer to the collection of defunct objects orbiting the Earth. Examples of debris include non-operational satellites, rocket bodies, and fragments generated from explosions, collisions, or faulty payload assembly.

Loading next visibility...
Identifier
40577, 1995-015EL
Orbit
SSO
Country
Flag of USUS
Related business
Manufacturer
Unknown
Mission
Spacecraft
Bus & Motor
Unknown
Mass
Unknown
Launch date (UTC)
1995-03-24 (30 years ago)
Launch vehicle
Unknown
Launch site
Air Force Western Test Range (AFWTR)
Object type
Payload
Rocket body
Debris
Shape & HBR
Unknown
Radar Cross Section
Small (<0.1 m²)

Expand to show TLE details & history
Last TLE update: 1 day ago

TLE from 1 day ago
0 DMSP 5D-2 F13 DEB
1 40577U 95015EL  25259.05936279  .00006924  00000-0  19153-2 0  9999
2 40577  98.6674 297.7326 0011262 264.3849  95.6059 14.46949468543864
Epoch: 2025-09-16T01:25Z
TLE epoch observation values (Epoch: 2025-09-16T01:25:28.945Z)
Latitude
0.00008°
Longitude
-78.89312°
Altitude
739.374 km
Speed
7.485 km/s
True Right ascension
19h 50m 55s
True Declination
0° 00' 00"
Sunlit
Object was in full shadow at epoch
Visualization orbit readout
Latitude
Unknown
Longitude
Unknown
Altitude
Unknown
Speed
Unknown
Apparent Right ascension
Unknown
Apparent Declination
Unknown
Sunlit
N/A
Visualization observer readout
Local Sidereal Time
02:53:39
Azimuth
Unknown
Elevation
Unknown
Doppler factor
Unknown
Orbital elements
Apogee altitude
740.758 km
Perigee altitude
724.742 km
Semi-major axis
7,110.887 km
Eccentricity
0.00113
Inclination
98.6674°
RAAN
297.7326°
Arg. of periapsis
264.3849°
True anomaly
95.73432°
Mean anomaly
95.6059°
Eccentric anomaly
95.67011°
Mean motion
3.61957 °/min
Orbital period
99.46 mins
BSTAR
0.0019153
Loading maneuver chart data...
Computing Atmospheric mass density...

Documentation

Showing up to 5 results
|